When you browse on this site, cookies collect data to enhance your experience and personalize the content and advertising you see.
Visit our Privacy Policy to learn more. By continuing to use the site, you agree to this use of cookies and data.
  • In Portugal
  • List of Countries
  • For 7 days
  • Water Temperature
  • Weather Map
  • Weather Widgets
  • user-avatar
    Login

    Hourly Weather Sylhet

    Today, 8 December, Sunday

    Time Temperature Precipitation Wind Pressure Humidity
    00:00 +20°C° 0 mm 1 mps 761 mmHg 66%
    01:00 +20°C° 0 mm 1 mps 761 mmHg 68%
    02:00 +19°C° 0 mm 1 mps 761 mmHg 70%
    03:00 +19°C° 0 mm 1 mps 760 mmHg 72%
    04:00 +19°C° 0 mm 1 mps 761 mmHg 74%
    05:00 +18°C° 0 mm 1 mps 761 mmHg 76%
    06:00 +18°C° 0 mm 1 mps 761 mmHg 84%
    07:00 +20°C° 0 mm 1 mps 762 mmHg 78%
    08:00 +21°C° 0 mm 1 mps 762 mmHg 72%
    09:00 +23°C° 0 mm 1 mps 763 mmHg 66%
    10:00 +25°C° 0 mm 1 mps 762 mmHg 60%
    11:00 +27°C° 0 mm 1 mps 762 mmHg 54%
    12:00 +28°C° 0 mm 1 mps 761 mmHg 46%
    13:00 +29°C° 0 mm 1 mps 761 mmHg 44%
    14:00 +27°C° 0 mm 0 mps 760 mmHg 42%
    15:00 +27°C° 0 mm 0 mps 759 mmHg 40%
    16:00 +25°C° 0 mm 0 mps 760 mmHg 45%
    17:00 +23°C° 0 mm 0 mps 760 mmHg 50%
    18:00 +22°C° 0 mm 0 mps 760 mmHg 55%
    19:00 +21°C° 0 mm 0 mps 760 mmHg 58%
    20:00 +22°C° 0 mm 1 mps 761 mmHg 60%
    21:00 +22°C° 0 mm 1 mps 762 mmHg 63%
    22:00 +21°C° 0 mm 1 mps 761 mmHg 65%
    23:00 +21°C° 0 mm 1 mps 761 mmHg 67%

    Tomorrow, 9 December, Monday

    Time Temperature Precipitation Wind Pressure Humidity
    00:00 +20°C° 0 mm 1 mps 761 mmHg 69%
    01:00 +20°C° 0 mm 1 mps 761 mmHg 72%
    02:00 +19°C° 0 mm 1 mps 761 mmHg 74%
    03:00 +19°C° 0 mm 1 mps 761 mmHg 77%
    04:00 +18°C° 0 mm 1 mps 761 mmHg 79%
    05:00 +18°C° 0 mm 1 mps 761 mmHg 81%
    06:00 +18°C° 0 mm 1 mps 761 mmHg 83%
    07:00 +20°C° 0 mm 1 mps 762 mmHg 77%
    08:00 +21°C° 0 mm 1 mps 762 mmHg 71%
    09:00 +23°C° 0 mm 1 mps 763 mmHg 65%
    10:00 +25°C° 0 mm 1 mps 762 mmHg 59%
    11:00 +27°C° 0 mm 1 mps 762 mmHg 53%
    12:00 +27°C° 0 mm 0 mps 761 mmHg 47%
    13:00 +29°C° 0 mm 1 mps 760 mmHg 44%
    14:00 +29°C° 0 mm 1 mps 760 mmHg 41%
    15:00 +29°C° 0 mm 1 mps 759 mmHg 39%
    16:00 +27°C° 0 mm 1 mps 759 mmHg 44%
    17:00 +25°C° 0 mm 1 mps 759 mmHg 49%
    18:00 +23°C° 0 mm 1 mps 760 mmHg 54%
    19:00 +23°C° 0 mm 1 mps 760 mmHg 56%
    20:00 +22°C° 0 mm 1 mps 760 mmHg 59%
    21:00 +21°C° 0 mm 1 mps 761 mmHg 61%
    22:00 +21°C° 0 mm 1 mps 760 mmHg 64%
    23:00 +20°C° 0 mm 1 mps 760 mmHg 66%

    Day after tomorrow, 10 December, Tuesday

    Time Temperature Precipitation Wind Pressure Humidity
    00:00 +20°C° 0 mm 1 mps 760 mmHg 68%
    01:00 +19°C° 0 mm 1 mps 760 mmHg 70%
    02:00 +19°C° 0 mm 1 mps 759 mmHg 72%
    03:00 +18°C° 0 mm 1 mps 759 mmHg 74%
    04:00 +18°C° 0 mm 1 mps 759 mmHg 76%
    05:00 +18°C° 0 mm 1 mps 759 mmHg 77%
    06:00 +16°C° 0 mm 1 mps 759 mmHg 79%
    07:00 +19°C° 0 mm 1 mps 760 mmHg 74%
    08:00 +20°C° 0 mm 1 mps 760 mmHg 69%
    09:00 +22°C° 0 mm 1 mps 761 mmHg 64%
    10:00 +24°C° 0 mm 1 mps 760 mmHg 58%
    11:00 +24°C° 0 mm 0 mps 760 mmHg 52%
    12:00 +26°C° 0 mm 0 mps 759 mmHg 46%
    13:00 +28°C° 0 mm 1 mps 758 mmHg 43%
    14:00 +28°C° 0 mm 1 mps 758 mmHg 41%
    15:00 +28°C° 0 mm 1 mps 757 mmHg 38%
    16:00 +26°C° 0 mm 1 mps 758 mmHg 43%
    17:00 +24°C° 0 mm 1 mps 758 mmHg 48%
    18:00 +22°C° 0 mm 1 mps 758 mmHg 53%
    19:00 +22°C° 0 mm 1 mps 758 mmHg 56%
    20:00 +21°C° 0 mm 1 mps 759 mmHg 58%
    21:00 +20°C° 0 mm 1 mps 759 mmHg 61%
    22:00 +20°C° 0 mm 1 mps 759 mmHg 63%
    23:00 +20°C° 0 mm 1 mps 759 mmHg 64%

    11 December, Wednesday

    Time Temperature Precipitation Wind Pressure Humidity
    00:00 +19°C° 0 mm 1 mps 759 mmHg 66%
    01:00 +19°C° 0 mm 1 mps 759 mmHg 68%
    02:00 +18°C° 0 mm 1 mps 759 mmHg 70%
    03:00 +16°C° 0 mm 2 mps 759 mmHg 72%
    04:00 +16°C° 0 mm 2 mps 759 mmHg 74%
    05:00 +16°C° 0 mm 1 mps 759 mmHg 76%
    06:00 +15°C° 0 mm 1 mps 759 mmHg 78%
    07:00 +18°C° 0 mm 1 mps 760 mmHg 73%
    08:00 +20°C° 0 mm 1 mps 760 mmHg 68%
    09:00 +21°C° 0 mm 1 mps 761 mmHg 63%
    10:00 +23°C° 0 mm 1 mps 760 mmHg 57%
    11:00 +25°C° 0 mm 1 mps 760 mmHg 52%
    12:00 +25°C° 0 mm 0 mps 759 mmHg 46%
    13:00 +27°C° 0 mm 1 mps 759 mmHg 43%
    14:00 +27°C° 0 mm 1 mps 758 mmHg 40%
    15:00 +27°C° 0 mm 2 mps 758 mmHg 37%
    16:00 +25°C° 0 mm 2 mps 758 mmHg 41%
    17:00 +24°C° 0 mm 1 mps 758 mmHg 45%
    18:00 +22°C° 0 mm 1 mps 758 mmHg 50%
    19:00 +21°C° 0 mm 1 mps 759 mmHg 53%
    20:00 +21°C° 0 mm 1 mps 759 mmHg 55%
    21:00 +20°C° 0 mm 1 mps 760 mmHg 58%
    22:00 +20°C° 0 mm 1 mps 760 mmHg 61%
    23:00 +18°C° 0 mm 2 mps 760 mmHg 65%

    12 December, Thursday

    Time Temperature Precipitation Wind Pressure Humidity
    00:00 +17°C° 0 mm 2 mps 759 mmHg 68%
    01:00 +17°C° 0 mm 2 mps 759 mmHg 70%
    02:00 +17°C° 0 mm 2 mps 759 mmHg 72%
    03:00 +16°C° 0 mm 2 mps 759 mmHg 74%
    04:00 +16°C° 0 mm 2 mps 759 mmHg 76%
    05:00 +16°C° 0 mm 2 mps 759 mmHg 78%
    06:00 +15°C° 0 mm 2 mps 760 mmHg 79%
    07:00 +17°C° 0 mm 2 mps 760 mmHg 74%
    08:00 +19°C° 0 mm 2 mps 761 mmHg 68%
    09:00 +20°C° 0 mm 2 mps 761 mmHg 62%
    10:00 +23°C° 0 mm 2 mps 761 mmHg 57%
    11:00 +25°C° 0 mm 1 mps 760 mmHg 51%
    12:00 +26°C° 0 mm 1 mps 760 mmHg 45%
    13:00 +27°C° 0 mm 1 mps 759 mmHg 43%
    14:00 +27°C° 0 mm 1 mps 759 mmHg 41%
    15:00 +27°C° 0 mm 1 mps 758 mmHg 39%
    16:00 +23°C° 0 mm 0 mps 758 mmHg 43%
    17:00 +21°C° 0 mm 0 mps 759 mmHg 48%
    18:00 +20°C° 0 mm 0 mps 759 mmHg 52%
    19:00 +19°C° 0 mm 0 mps 759 mmHg 54%
    20:00 +19°C° 0 mm 0 mps 760 mmHg 56%
    21:00 +18°C° 0 mm 0 mps 760 mmHg 59%
    22:00 +20°C° 0 mm 1 mps 760 mmHg 61%
    23:00 +19°C° 0 mm 1 mps 760 mmHg 64%

    13 December, Friday

    Time Temperature Precipitation Wind Pressure Humidity
    00:00 +19°C° 0 mm 1 mps 760 mmHg 66%
    01:00 +18°C° 0 mm 1 mps 760 mmHg 69%
    02:00 +18°C° 0 mm 1 mps 760 mmHg 72%
    03:00 +16°C° 0 mm 1 mps 760 mmHg 75%
    04:00 +16°C° 0 mm 1 mps 760 mmHg 77%
    05:00 +15°C° 0 mm 2 mps 760 mmHg 79%
    06:00 +15°C° 0 mm 2 mps 760 mmHg 82%
    07:00 +17°C° 0 mm 2 mps 761 mmHg 76%
    08:00 +18°C° 0 mm 2 mps 761 mmHg 71%
    09:00 +20°C° 0 mm 2 mps 762 mmHg 65%
    10:00 +23°C° 0 mm 2 mps 761 mmHg 59%
    11:00 +25°C° 0 mm 2 mps 761 mmHg 53%
    12:00 +26°C° 0 mm 2 mps 760 mmHg 48%
    13:00 +27°C° 0 mm 2 mps 760 mmHg 44%
    14:00 +27°C° 0 mm 1 mps 759 mmHg 41%
    15:00 +28°C° 0 mm 1 mps 759 mmHg 37%
    16:00 +26°C° 0 mm 1 mps 759 mmHg 42%
    17:00 +24°C° 0 mm 1 mps 759 mmHg 47%
    18:00 +22°C° 0 mm 1 mps 759 mmHg 52%
    19:00 +21°C° 0 mm 1 mps 760 mmHg 53%
    20:00 +21°C° 0 mm 1 mps 760 mmHg 55%
    21:00 +18°C° 0 mm 0 mps 761 mmHg 57%
    22:00 +19°C° 0 mm 1 mps 761 mmHg 59%
    23:00 +19°C° 0 mm 1 mps 761 mmHg 62%
    Show more